Lid_Strength_Index
1 1 1 1 0 0 0 0 0 -0 -0 -0 -0 -0 -0 -0 -0 -0 -0 0 0 0 -0 0 0 -0 1 1 1 1 2 2 4 3 1 0 0 0 -0 -1 -1 -1 -1
1 1 1 1 0 1 0 0 -0 0 -0 -0 -0 0 0 1 -0 0 1 1 1 1 0 0 0 1 0 0 1 1 1 1 2 4 2 1 1 -0 -0 -0 -0 -0 -1
1 0 0 1 1 1 0 0 -0 0 0 -0 0 0 0 1 1 0 1 1 0 0 0 1 1 0 1 1 1 1 1 1 1 3 3 1 1 0 1 0 0 -0 -0
2 2 2 1 1 1 1 1 1 1 1 1 0 0 0 0 0 0 0 0 0 1 1 0 0 0 1 1 1 1 1 2 2 3 3 3 2 1 1 2 2 1 1
4 4 4 3 3 3 3 2 2 2 2 2 2 1 1 0 1 0 1 1 1 1 0 0 -0 0 1 1 1 1 1 2 3 3 3 3 3 3 3 2 2 1 1
5 5 5 4 4 4 4 4 3 3 2 2 2 2 2 2 4 5 2 1 1 1 1 1 0 0 0 2 2 2 1 2 3 3 3 4 3 3 2 2 2 4 5
6 6 6 6 6 5 5 4 4 4 3 3 3 3 3 2 6 6 4 1 1 1 1 1 1 2 2 1 2 3 3 5 3 2 3 3 3 2 2 4 4 4 4
7 7 6 6 6 5 5 5 5 5 4 5 5 4 4 3 5 6 6 1 1 1 1 1 1 1 1 1 2 1 1 0 0 1 1 1 1 1 3 2 3 1 1
7 7 6 7 7 6 6 6 6 7 7 6 6 5 4 4 6 7 6 4 3 3 3 3 2 2 5 6 2 2 1 1 2 5 6 7 7 7 4 2 2 3 4
7 7 7 7 7 8 8 8 8 7 7 7 6 5 6 6 9 10 9 8 7 6 4 4 7 6 8 8 4 1 2 2 1 1 3 6 7 6 6 0 1 3 3
8 8 8 8 8 8 8 8 8 8 7 8 10 10 10 9 8 10 10 7 6 6 5 5 5 8 9 9 7 1 2 1 2 1 1 2 3 3 3 0 -0 1 2
9 9 9 9 8 8 9 9 9 11 12 11 11 10 8 7 8 8 9 9 7 5 5 5 5 8 9 7 7 6 7 5 1 2 2 3 3 3 1 1 -0 -0 -1
9 9 9 9 11 11 13 13 13 12 12 11 10 10 9 8 7 8 9 9 8 7 5 6 8 9 8 7 8 6 7 2 2 3 3 2 3 1 1 1 -0 -1 -1
10 11 11 13 14 12 12 13 13 12 12 12 11 11 10 9 8 8 7 6 7 6 7 6 7 6 6 6 4 5 3 2 2 2 2 1 1 1 2 1 1 1 1
15 14 14 13 13 14 13 12 12 11 11 11 11 11 11 10 9 9 9 8 7 7 7 6 5 4 4 4 2 2 3 2 3 2 2 2 2 2 1 1 1 1 2
15 14 14 14 14 14 13 12 11 11 10 11 12 12 10 11 11 11 11 10 10 11 8 6 5 4 4 3 3 3 2 3 2 2 2 2 2 2 2 1 1 2 2
15 15 15 15 15 14 12 12 12 10 10 11 12 11 11 11 12 11 10 11 11 11 8 6 5 5 4 2 2 3 3 2 2 2 2 2 1 2 2 2 2 2 2
15 15 15 15 13 12 12 11 11 11 11 10 10 11 11 11 11 11 11 11 10 10 8 6 5 4 3 2 2 2 3 4 2 2 1 1 1 2 2 2 2 2 2
15 15 14 14 12 12 10 10 10 10 10 11 10 10 10 11 11 11 11 10 10 10 7 6 5 4 4 3 1 2 4 4 3 2 1 2 1 2 2 2 2 8 5
14 14 14 13 12 12 11 11 10 10 10 11 10 9 8 10 10 10 10 10 10 9 7 6 5 4 4 3 1 2 3 3 2 2 1 1 1 1 1 2 2 2 2
14 14 15 13 14 14 12 12 11 11 11 12 11 10 13 10 10 10 10 10 10 9 8 6 5 4 4 2 2 4 4 3 2 1 1 1 1 2 1 1 1 1 2
14 14 15 15 15 15 15 13 12 12 12 12 12 11 13 10 10 10 10 10 10 9 7 6 6 5 5 3 3 3 3 3 2 2 1 1 1 1 1 1 1 2 2
14 15 16 16 16 16 16 15 14 13 13 12 13 12 12 10 10 10 10 10 10 9 7 6 5 4 4 4 3 3 5 5 3 3 2 1 1 1 1 2 2 2 2
15 15 16 17 16 17 17 17 16 15 13 13 12 12 13 12 10 10 10 9 9 9 8 7 6 5 5 4 4 4 4 5 4 3 2 1 1 2 1 1 1 1 1
16 16 16 17 17 17 17 17 17 17 15 14 13 13 13 13 12 10 9 9 9 9 8 8 6 5 5 4 4 5 8 12 7 11 4 1 1 1 1 1 1 1 1
17 17 16 16 17 18 18 18 18 18 17 14 14 14 13 13 13 12 12 9 8 8 8 8 7 6 5 4 4 9 11 12 8 13 4 0 1 1 1 1 1 1 2